| time (UTC) | temp C | wind direction | speed KPH | gust KPH | rain 1hr cm | rain 24hr cm | rain mn cm | humidity % | barometer mb |
| 20260903144513 | 10 | 142 | 0.0 | 0.0 | 0.00 | 0.00 | 0.53 | 94 | 1017.6 |
| 20260903143048 | 10 | 81 | 0.0 | 0.0 | 0.00 | 0.00 | 0.46 | 94 | 1017.4 |
| 20260903141550 | 10 | 66 | 0.0 | 0.0 | 0.00 | 0.00 | 0.43 | 94 | 1017.3 |
| 20260903140037 | 10 | 76 | 0.0 | 0.0 | 0.00 | 0.00 | 0.41 | 94 | 1017.0 |
| 20260903134601 | 10 | 56 | 0.0 | 0.0 | 0.00 | 0.00 | 0.41 | 94 | 1017.0 |
| 20260903133109 | 10 | 57 | 0.0 | 0.0 | 0.00 | 0.00 | 0.41 | 94 | 1016.6 |
| 20260903133001 | 10 | 59 | 0.0 | 0.0 | 0.00 | 0.00 | 0.41 | 94 | 1016.6 |
| 20260903131531 | 10 | 78 | 0.0 | 0.0 | 0.00 | 0.00 | 0.41 | 93 | 1016.6 |
| 20260903130125 | 10 | 78 | 0.0 | 0.0 | 0.00 | 0.00 | 0.41 | 93 | 1016.5 |
| 20260903124531 | 10 | 67 | 0.0 | 0.0 | 0.00 | 0.00 | 0.41 | 93 | 1016.4 |
| 20260903123054 | 10 | 69 | 0.0 | 0.0 | 0.00 | 0.00 | 0.41 | 93 | 1016.2 |
| 20260903121556 | 10 | 75 | 0.0 | 0.0 | 0.00 | 0.00 | 0.41 | 93 | 1016.1 |
| 20260903120005 | 10 | 63 | 0.0 | 0.0 | 0.00 | 0.00 | 0.41 | 93 | 1016.0 |
| 20260903114509 | 10 | 58 | 0.0 | 0.0 | 0.00 | 0.00 | 0.41 | 92 | 1016.1 |
| 20260903113057 | 10 | 58 | 0.0 | 0.0 | 0.00 | 0.00 | 0.41 | 93 | 1016.1 |
| 20260903111532 | 10 | 61 | 0.0 | 0.0 | 0.00 | 0.00 | 0.41 | 92 | 1016.0 |
| 20260903110020 | 10 | 59 | 0.0 | 0.0 | 0.00 | 0.00 | 0.41 | 92 | 1015.9 |
| 20260903104533 | 10 | 28 | 0.0 | 0.0 | 0.00 | 0.00 | 0.38 | 92 | 1016.0 |
| 20260903103026 | 10 | 27 | 0.0 | 0.0 | 0.00 | 0.00 | 0.38 | 91 | 1016.0 |
| 20260903101553 | 10 | 27 | 0.0 | 0.0 | 0.00 | 0.00 | 0.33 | 91 | 1016.1 |
| 20260903100042 | 10 | 28 | 0.0 | 0.0 | 0.00 | 0.00 | 0.30 | 91 | 1015.8 |
| 20260903094518 | 11 | 27 | 0.0 | 0.0 | 0.00 | 0.00 | 0.28 | 91 | 1015.7 |
| 20260903093023 | 11 | 28 | 0.0 | 0.0 | 0.00 | 0.00 | 0.25 | 90 | 1015.7 |
| 20260903091549 | 11 | 27 | 0.0 | 0.0 | 0.00 | 0.00 | 0.23 | 90 | 1015.6 |
| 20260903090021 | 11 | 68 | 0.0 | 0.0 | 0.00 | 0.00 | 0.20 | 90 | 1015.4 |
| 20260903084548 | 11 | 24 | 0.0 | 0.0 | 0.00 | 0.00 | 0.18 | 89 | 1015.6 |
| 20260903083101 | 11 | 22 | 0.0 | 0.0 | 0.00 | 0.00 | 0.13 | 88 | 1015.6 |
| 20260903081529 | 11 | 76 | 0.0 | 0.0 | 0.00 | 0.00 | 0.10 | 87 | 1015.7 |
| 20260903080036 | 11 | 60 | 1.6 | 0.0 | 0.00 | 0.00 | 0.08 | 87 | 1015.3 |
| 20260903074542 | 12 | 60 | 0.0 | 0.0 | 0.00 | 0.00 | 0.08 | 86 | 1015.2 |